Location: Seattle
(47.6064°N, 122.3308°W)
Time: 01:01:17
(UTC-07:00)

RS-15 - Pass Details

Date: 01 April 2023
Orbit: 1885 x 2159 km, 64.8° (Epoch: 29 May)

Event Time Altitude Azimuth Distance (km) Brightness Sun altitude
Rises 23:42:41 0° 316° (NW) 5,662 11.4 -33.9°
Reaches altitude 10° 23:46:18 10° 321° (NW) 4,635 10.8 -34.2°
Maximum altitude 23:58:18 62° 41° (NE) 2,259 8.3 -35.0°
Enters shadow 00:02:05 46° 97° (E) 2,575 8.3 -35.3°
